| time (UTC) | temp F | wind direction | speed knots | gust knots | rain 1hr in | rain 24hr in | rain mn in | humidity % | barometer mb |
| 20260906083050 | 69 | 0 | 0.0 | 0.0 | 0.00 | 0.00 | 0.00 | 92 | 1012.1 |
| 20260906082538 | 70 | 0 | 0.0 | 0.0 | 0.00 | 0.00 | 0.00 | 93 | 1012.0 |
| 20260906082038 | 70 | 0 | 0.0 | 0.0 | 0.00 | 0.00 | 0.00 | 92 | 1012.1 |
| 20260906081551 | 70 | 0 | 0.0 | 0.0 | 0.00 | 0.00 | 0.00 | 92 | 1012.0 |
| 20260906081041 | 70 | 0 | 0.0 | 0.0 | 0.00 | 0.00 | 0.00 | 92 | 1012.0 |
| 20260906080538 | 70 | 0 | 0.0 | 0.0 | 0.00 | 0.00 | 0.00 | 92 | 1012.0 |
| 20260906080056 | 70 | 0 | 0.0 | 0.0 | 0.00 | 0.00 | 0.00 | 92 | 1011.9 |
| 20260906075538 | 70 | 0 | 0.0 | 0.0 | 0.00 | 0.00 | 0.00 | 92 | 1011.8 |
| 20260906075038 | 70 | 0 | 0.0 | 0.0 | 0.00 | 0.00 | 0.00 | 92 | 1011.8 |
| 20260906074556 | 70 | 0 | 0.0 | 0.0 | 0.00 | 0.00 | 0.00 | 92 | 1011.8 |
| 20260906074039 | 70 | 0 | 0.0 | 0.0 | 0.00 | 0.00 | 0.00 | 92 | 1011.8 |
| 20260906073537 | 70 | 0 | 0.0 | 0.0 | 0.00 | 0.00 | 0.00 | 91 | 1011.8 |
| 20260906073049 | 70 | 0 | 0.0 | 0.0 | 0.00 | 0.00 | 0.00 | 91 | 1011.8 |
| 20260906072538 | 70 | 0 | 0.0 | 0.0 | 0.00 | 0.00 | 0.00 | 92 | 1011.8 |
| 20260906072038 | 70 | 0 | 0.0 | 0.0 | 0.00 | 0.00 | 0.00 | 92 | 1011.7 |
| 20260906071605 | 70 | 0 | 0.0 | 0.0 | 0.00 | 0.00 | 0.00 | 92 | 1011.8 |
| 20260906071038 | 70 | 0 | 0.0 | 0.0 | 0.00 | 0.00 | 0.00 | 92 | 1011.7 |
| 20260906070539 | 70 | 0 | 0.0 | 0.0 | 0.00 | 0.00 | 0.00 | 91 | 1011.9 |
| 20260906070052 | 70 | 0 | 0.0 | 0.0 | 0.00 | 0.00 | 0.00 | 91 | 1012.0 |
| 20260906065541 | 71 | 0 | 0.0 | 0.0 | 0.00 | 0.00 | 0.00 | 91 | 1012.0 |
| 20260906065040 | 71 | 0 | 0.0 | 0.0 | 0.00 | 0.00 | 0.00 | 91 | 1012.0 |
| 20260906064557 | 71 | 0 | 0.0 | 0.9 | 0.00 | 0.00 | 0.00 | 91 | 1011.8 |
| 20260906064041 | 71 | 0 | 0.0 | 0.9 | 0.00 | 0.00 | 0.00 | 91 | 1011.9 |
| 20260906063539 | 71 | 0 | 0.0 | 0.9 | 0.00 | 0.00 | 0.00 | 91 | 1011.9 |
| 20260906063101 | 71 | 0 | 0.0 | 0.9 | 0.00 | 0.00 | 0.00 | 91 | 1012.0 |
| 20260906062538 | 71 | 0 | 0.0 | 0.9 | 0.00 | 0.00 | 0.00 | 90 | 1012.0 |
| 20260906062042 | 71 | 0 | 0.0 | 0.0 | 0.00 | 0.00 | 0.00 | 90 | 1012.1 |
| 20260906061554 | 71 | 0 | 0.0 | 0.0 | 0.00 | 0.00 | 0.00 | 90 | 1012.3 |
| 20260906061037 | 71 | 0 | 0.0 | 0.0 | 0.00 | 0.00 | 0.00 | 90 | 1012.3 |
| 20260906060537 | 71 | 0 | 0.0 | 0.0 | 0.00 | 0.00 | 0.00 | 90 | 1012.2 |
| 20260906060053 | 71 | 0 | 0.0 | 0.0 | 0.00 | 0.00 | 0.00 | 90 | 1012.2 |
| 20260906055538 | 71 | 0 | 0.0 | 0.0 | 0.00 | 0.00 | 0.00 | 90 | 1012.2 |
| 20260906055039 | 72 | 0 | 0.0 | 0.0 | 0.00 | 0.00 | 0.00 | 90 | 1012.5 |
| 20260906054558 | 72 | 0 | 0.0 | 0.0 | 0.00 | 0.00 | 0.00 | 90 | 1012.5 |
| 20260906054038 | 72 | 0 | 0.0 | 0.0 | 0.00 | 0.00 | 0.00 | 89 | 1012.4 |
| 20260906053537 | 72 | 0 | 0.0 | 0.0 | 0.00 | 0.00 | 0.00 | 89 | 1012.7 |
| 20260906053054 | 72 | 0 | 0.0 | 0.0 | 0.00 | 0.00 | 0.00 | 89 | 1012.8 |
| 20260906052538 | 72 | 0 | 0.0 | 0.0 | 0.00 | 0.00 | 0.00 | 89 | 1012.6 |
| 20260906052039 | 72 | 0 | 0.0 | 0.0 | 0.00 | 0.00 | 0.00 | 88 | 1012.6 |
| 20260906051555 | 72 | 0 | 0.0 | 0.0 | 0.00 | 0.00 | 0.00 | 88 | 1012.7 |
| 20260906051038 | 73 | 0 | 0.0 | 0.0 | 0.00 | 0.00 | 0.00 | 88 | 1012.8 |
| 20260906050542 | 73 | 0 | 0.0 | 0.0 | 0.00 | 0.00 | 0.00 | 88 | 1012.7 |
| 20260906050113 | 73 | 0 | 0.0 | 0.0 | 0.00 | 0.00 | 0.00 | 88 | 1012.7 |
| 20260906045537 | 73 | 0 | 0.0 | 0.0 | 0.00 | 0.00 | 0.00 | 88 | 1012.5 |
| 20260906045038 | 73 | 0 | 0.0 | 0.0 | 0.00 | 0.00 | 0.00 | 88 | 1012.6 |
| 20260906044557 | 73 | 0 | 0.0 | 0.9 | 0.00 | 0.00 | 0.00 | 88 | 1012.7 |
| 20260906044038 | 73 | 0 | 0.0 | 0.9 | 0.00 | 0.00 | 0.00 | 88 | 1012.8 |
| 20260906043538 | 73 | 0 | 0.0 | 0.0 | 0.00 | 0.00 | 0.00 | 88 | 1012.7 |
| 20260906043105 | 73 | 0 | 0.0 | 0.0 | 0.00 | 0.00 | 0.00 | 88 | 1012.7 |
| 20260906042538 | 73 | 0 | 0.0 | 0.0 | 0.00 | 0.00 | 0.00 | 88 | 1012.8 |
| 20260906042039 | 73 | 0 | 0.0 | 0.9 | 0.00 | 0.00 | 0.00 | 88 | 1012.9 |
| 20260906041551 | 73 | 0 | 0.0 | 0.9 | 0.00 | 0.00 | 0.00 | 88 | 1012.7 |
| 20260906041037 | 73 | 0 | 0.0 | 1.7 | 0.00 | 0.00 | 0.00 | 88 | 1012.9 |
| 20260906040538 | 73 | 0 | 0.0 | 1.7 | 0.00 | 0.00 | 0.00 | 88 | 1012.8 |
| 20260906040059 | 73 | 0 | 0.0 | 1.7 | 0.00 | 0.00 | 0.00 | 88 | 1012.9 |
| 20260906035539 | 73 | 0 | 0.0 | 1.7 | 0.00 | 0.00 | 0.00 | 88 | 1012.8 |
| 20260906035039 | 73 | 0 | 0.0 | 1.7 | 0.00 | 0.00 | 0.00 | 88 | 1012.7 |
| 20260906034554 | 73 | 0 | 0.0 | 2.6 | 0.00 | 0.00 | 0.00 | 88 | 1012.8 |
| 20260906034041 | 73 | 40 | 0.9 | 2.6 | 0.00 | 0.00 | 0.00 | 88 | 1012.7 |
| 20260906033538 | 74 | 0 | 0.0 | 1.7 | 0.00 | 0.00 | 0.00 | 88 | 1012.9 |
| 20260906033051 | 73 | 26 | 0.0 | 2.6 | 0.00 | 0.00 | 0.00 | 89 | 1013.0 |
| 20260906032539 | 74 | 0 | 0.0 | 2.6 | 0.00 | 0.00 | 0.00 | 88 | 1013.1 |
| 20260906032038 | 74 | 25 | 0.0 | 3.5 | 0.00 | 0.00 | 0.00 | 89 | 1013.0 |
| 20260906031549 | 74 | 0 | 0.0 | 3.5 | 0.00 | 0.00 | 0.00 | 89 | 1013.1 |
| 20260906031038 | 74 | 0 | 0.0 | 2.6 | 0.00 | 0.00 | 0.00 | 89 | 1013.1 |
| 20260906030542 | 74 | 13 | 0.0 | 1.7 | 0.00 | 0.00 | 0.00 | 89 | 1013.1 |
| 20260906030120 | 74 | 0 | 0.0 | 1.7 | 0.00 | 0.00 | 0.00 | 90 | 1012.8 |
| 20260906025538 | 74 | 0 | 0.0 | 0.9 | 0.00 | 0.00 | 0.00 | 89 | 1013.0 |
| 20260906025040 | 74 | 0 | 0.0 | 0.9 | 0.00 | 0.00 | 0.00 | 90 | 1013.0 |
| 20260906024553 | 74 | 0 | 0.0 | 0.0 | 0.00 | 0.00 | 0.00 | 89 | 1012.9 |
| 20260906024038 | 75 | 0 | 0.0 | 0.0 | 0.00 | 0.00 | 0.00 | 89 | 1012.9 |
| 20260906023541 | 75 | 0 | 0.0 | 0.9 | 0.00 | 0.00 | 0.00 | 89 | 1012.8 |
| 20260906023053 | 75 | 0 | 0.0 | 1.7 | 0.00 | 0.00 | 0.00 | 89 | 1012.6 |
| 20260906022538 | 75 | 15 | 0.0 | 1.7 | 0.00 | 0.00 | 0.00 | 89 | 1012.7 |
| 20260906022038 | 75 | 0 | 0.0 | 1.7 | 0.00 | 0.00 | 0.00 | 89 | 1012.9 |
| 20260906021608 | 75 | 0 | 0.0 | 0.9 | 0.00 | 0.00 | 0.00 | 88 | 1013.0 |
| 20260906021038 | 75 | 0 | 0.0 | 0.0 | 0.00 | 0.00 | 0.00 | 88 | 1012.9 |
| 20260906020538 | 75 | 0 | 0.0 | 0.0 | 0.00 | 0.00 | 0.00 | 88 | 1012.9 |
| 20260906015537 | 76 | 0 | 0.0 | 0.9 | 0.00 | 0.00 | 0.00 | 87 | 1013.0 |
| 20260906015038 | 76 | 0 | 0.0 | 1.7 | 0.00 | 0.00 | 0.00 | 87 | 1013.2 |
| 20260906014553 | 76 | 0 | 0.0 | 1.7 | 0.00 | 0.00 | 0.00 | 87 | 1013.0 |
| 20260906014037 | 76 | 133 | 0.0 | 1.7 | 0.00 | 0.00 | 0.00 | 87 | 1012.9 |
| 20260906013537 | 76 | 0 | 0.0 | 0.9 | 0.00 | 0.00 | 0.00 | 86 | 1012.8 |
| 20260906013055 | 76 | 0 | 0.0 | 0.0 | 0.00 | 0.00 | 0.00 | 85 | 1012.9 |
| 20260906012540 | 77 | 0 | 0.0 | 0.0 | 0.00 | 0.00 | 0.00 | 84 | 1012.9 |
| 20260906012038 | 77 | 0 | 0.0 | 0.9 | 0.00 | 0.00 | 0.00 | 84 | 1012.9 |
| 20260906011556 | 77 | 0 | 0.0 | 0.9 | 0.00 | 0.00 | 0.00 | 84 | 1012.7 |
| 20260906011038 | 77 | 0 | 0.0 | 0.0 | 0.00 | 0.00 | 0.00 | 83 | 1012.8 |
| 20260906010537 | 77 | 0 | 0.0 | 0.0 | 0.00 | 0.00 | 0.00 | 83 | 1012.8 |
| 20260906010055 | 78 | 0 | 0.0 | 0.0 | 0.00 | 0.00 | 0.00 | 83 | 1012.9 |
| 20260906005538 | 78 | 0 | 0.0 | 0.0 | 0.00 | 0.00 | 0.00 | 83 | 1012.7 |
| 20260906005038 | 78 | 0 | 0.0 | 0.9 | 0.00 | 0.00 | 0.00 | 82 | 1012.7 |
| 20260906004549 | 78 | 0 | 0.0 | 0.9 | 0.00 | 0.00 | 0.00 | 82 | 1012.9 |
| 20260906004038 | 78 | 0 | 0.0 | 0.9 | 0.00 | 0.00 | 0.00 | 82 | 1012.9 |
| 20260906003538 | 79 | 0 | 0.0 | 1.7 | 0.00 | 0.00 | 0.00 | 82 | 1012.8 |
| 20260906003105 | 79 | 0 | 0.0 | 1.7 | 0.00 | 0.00 | 0.00 | 81 | 1012.8 |
| 20260906002537 | 79 | 0 | 0.0 | 1.7 | 0.00 | 0.00 | 0.00 | 81 | 1012.7 |
| 20260906002040 | 79 | 0 | 0.0 | 1.7 | 0.00 | 0.00 | 0.00 | 80 | 1012.5 |
| 20260906001555 | 80 | 0 | 0.0 | 1.7 | 0.00 | 0.00 | 0.00 | 81 | 1012.5 |
| 20260906001038 | 80 | 0 | 0.0 | 0.0 | 0.00 | 0.00 | 0.00 | 78 | 1012.5 |
| 20260906000540 | 80 | 0 | 0.0 | 0.0 | 0.00 | 0.00 | 0.00 | 78 | 1012.3 |
| 20260906000053 | 80 | 0 | 0.0 | 0.0 | 0.00 | 0.00 | 0.00 | 78 | 1012.3 |
| 20260905235537 | 81 | 0 | 0.0 | 0.0 | 0.00 | 0.00 | 0.00 | 78 | 1012.4 |
| 20260905235038 | 81 | 0 | 0.0 | 0.0 | 0.00 | 0.00 | 0.00 | 78 | 1012.2 |
| 20260905234555 | 81 | 0 | 0.0 | 0.0 | 0.00 | 0.00 | 0.00 | 76 | 1012.2 |
| 20260905234039 | 81 | 0 | 0.0 | 0.0 | 0.00 | 0.00 | 0.00 | 76 | 1012.2 |
| 20260905233538 | 81 | 0 | 0.0 | 0.0 | 0.00 | 0.00 | 0.00 | 76 | 1012.0 |
| 20260905233053 | 81 | 0 | 0.0 | 0.0 | 0.00 | 0.00 | 0.00 | 76 | 1012.0 |
| 20260905232538 | 81 | 0 | 0.0 | 0.0 | 0.00 | 0.00 | 0.00 | 75 | 1011.9 |
| 20260905232038 | 82 | 0 | 0.0 | 0.0 | 0.00 | 0.00 | 0.00 | 75 | 1011.6 |
| 20260905231553 | 82 | 0 | 0.0 | 0.0 | 0.00 | 0.00 | 0.00 | 75 | 1011.7 |
| 20260905231038 | 82 | 0 | 0.0 | 0.9 | 0.00 | 0.00 | 0.00 | 75 | 1011.4 |
| 20260905230537 | 82 | 0 | 0.0 | 0.9 | 0.00 | 0.00 | 0.00 | 74 | 1011.6 |
| 20260905230052 | 82 | 0 | 0.0 | 0.9 | 0.00 | 0.00 | 0.00 | 74 | 1011.5 |
| 20260905225537 | 82 | 0 | 0.0 | 0.9 | 0.00 | 0.00 | 0.00 | 74 | 1011.4 |
| 20260905225038 | 82 | 0 | 0.0 | 0.9 | 0.00 | 0.00 | 0.00 | 74 | 1011.4 |
| 20260905224554 | 82 | 0 | 0.0 | 0.9 | 0.00 | 0.00 | 0.00 | 74 | 1011.5 |
| 20260905224038 | 82 | 0 | 0.0 | 0.9 | 0.00 | 0.00 | 0.00 | 75 | 1011.6 |
| 20260905223537 | 82 | 0 | 0.0 | 2.6 | 0.00 | 0.00 | 0.00 | 75 | 1011.6 |
| 20260905223101 | 82 | 0 | 0.0 | 2.6 | 0.00 | 0.00 | 0.00 | 74 | 1011.5 |
| 20260905222537 | 82 | 312 | 0.0 | 0.9 | 0.00 | 0.00 | 0.00 | 76 | 1011.4 |
| 20260905222038 | 82 | 0 | 0.0 | 0.0 | 0.00 | 0.00 | 0.00 | 76 | 1011.4 |
| 20260905221553 | 82 | 0 | 0.0 | 0.0 | 0.00 | 0.00 | 0.00 | 76 | 1011.3 |
| 20260905221041 | 82 | 0 | 0.0 | 0.0 | 0.00 | 0.00 | 0.00 | 76 | 1011.4 |
| 20260905220540 | 81 | 0 | 0.0 | 0.0 | 0.00 | 0.00 | 0.00 | 76 | 1011.4 |
| 20260905220053 | 81 | 0 | 0.0 | 0.0 | 0.00 | 0.00 | 0.00 | 75 | 1011.3 |
| 20260905215537 | 82 | 0 | 0.0 | 0.9 | 0.00 | 0.00 | 0.00 | 76 | 1011.1 |
| 20260905215038 | 82 | 0 | 0.0 | 0.9 | 0.00 | 0.00 | 0.00 | 77 | 1011.3 |
| 20260905214613 | 82 | 0 | 0.0 | 0.9 | 0.00 | 0.00 | 0.00 | 75 | 1011.3 |
| 20260905214039 | 82 | 0 | 0.0 | 1.7 | 0.00 | 0.00 | 0.00 | 74 | 1011.5 |
| 20260905213538 | 83 | 0 | 0.0 | 1.7 | 0.00 | 0.00 | 0.00 | 74 | 1011.7 |
| 20260905213053 | 83 | 0 | 0.0 | 1.7 | 0.00 | 0.00 | 0.00 | 74 | 1011.8 |
| 20260905212538 | 84 | 0 | 0.0 | 0.9 | 0.00 | 0.00 | 0.00 | 73 | 1012.2 |
| 20260905212037 | 84 | 0 | 0.0 | 0.9 | 0.00 | 0.00 | 0.00 | 71 | 1012.4 |
| 20260905211554 | 84 | 0 | 0.0 | 2.6 | 0.00 | 0.00 | 0.00 | 69 | 1012.4 |
| 20260905211038 | 85 | 301 | 0.0 | 2.6 | 0.00 | 0.00 | 0.00 | 66 | 1012.4 |
| 20260905210540 | 85 | 245 | 0.0 | 2.6 | 0.00 | 0.00 | 0.00 | 65 | 1012.4 |
| 20260905210101 | 85 | 0 | 0.0 | 2.6 | 0.00 | 0.00 | 0.00 | 65 | 1012.5 |
| 20260905205538 | 85 | 0 | 0.0 | 4.3 | 0.00 | 0.00 | 0.00 | 65 | 1012.4 |
| 20260905205038 | 85 | 0 | 0.0 | 4.3 | 0.00 | 0.00 | 0.00 | 64 | 1012.3 |
| 20260905204556 | 85 | 262 | 0.9 | 4.3 | 0.00 | 0.00 | 0.00 | 65 | 1012.4 |
| 20260905204038 | 86 | 0 | 0.0 | 4.3 | 0.00 | 0.00 | 0.00 | 66 | 1012.3 |
| 20260905203540 | 86 | 124 | 0.0 | 2.6 | 0.00 | 0.00 | 0.00 | 64 | 1012.2 |
| 20260905203054 | 87 | 124 | 0.0 | 4.3 | 0.00 | 0.00 | 0.00 | 62 | 1012.2 |
| 20260905202537 | 87 | 339 | 1.7 | 7.0 | 0.00 | 0.00 | 0.00 | 61 | 1011.9 |
| 20260905202041 | 88 | 0 | 1.7 | 7.0 | 0.00 | 0.00 | 0.00 | 58 | 1011.6 |
| 20260905201551 | 89 | 304 | 1.7 | 6.1 | 0.00 | 0.00 | 0.00 | 58 | 1011.8 |
| 20260905201038 | 89 | 306 | 1.7 | 6.1 | 0.00 | 0.00 | 0.00 | 57 | 1011.3 |
| 20260905200537 | 90 | 354 | 1.7 | 7.8 | 0.00 | 0.00 | 0.00 | 58 | 1011.2 |
| 20260905200056 | 91 | 281 | 0.9 | 7.8 | 0.00 | 0.00 | 0.00 | 55 | 1010.9 |
| 20260905195540 | 92 | 292 | 1.7 | 8.7 | 0.00 | 0.00 | 0.00 | 56 | 1010.9 |
| 20260905195037 | 94 | 0 | 0.9 | 8.7 | 0.00 | 0.00 | 0.00 | 55 | 1011.0 |
| 20260905194552 | 96 | 335 | 2.6 | 8.7 | 0.00 | 0.00 | 0.00 | 49 | 1011.1 |
| 20260905194038 | 96 | 335 | 0.9 | 5.2 | 0.00 | 0.00 | 0.00 | 54 | 1011.2 |
| 20260905193537 | 96 | 141 | 0.0 | 5.2 | 0.00 | 0.00 | 0.00 | 52 | 1011.3 |
| 20260905193056 | 97 | 40 | 0.0 | 5.2 | 0.00 | 0.00 | 0.00 | 50 | 1011.4 |
| 20260905192538 | 98 | 360 | 1.7 | 5.2 | 0.00 | 0.00 | 0.00 | 48 | 1011.5 |
| 20260905192038 | 99 | 253 | 0.9 | 5.2 | 0.00 | 0.00 | 0.00 | 49 | 1011.6 |
| 20260905191551 | 98 | 0 | 1.7 | 4.3 | 0.00 | 0.00 | 0.00 | 51 | 1011.5 |
| 20260905191041 | 98 | 291 | 0.9 | 5.2 | 0.00 | 0.00 | 0.00 | 52 | 1011.5 |
| 20260905190538 | 97 | 273 | 0.9 | 5.2 | 0.00 | 0.00 | 0.00 | 49 | 1011.5 |
| 20260905190053 | 98 | 6 | 0.0 | 7.0 | 0.00 | 0.00 | 0.00 | 49 | 1011.7 |
| 20260905185537 | 98 | 57 | 2.6 | 7.0 | 0.00 | 0.00 | 0.00 | 49 | 1011.7 |
| 20260905185038 | 98 | 0 | 1.7 | 5.2 | 0.00 | 0.00 | 0.00 | 49 | 1011.7 |
| 20260905184604 | 97 | 345 | 0.9 | 4.3 | 0.00 | 0.00 | 0.00 | 50 | 1011.8 |
| 20260905184038 | 97 | 298 | 1.7 | 6.1 | 0.00 | 0.00 | 0.00 | 52 | 1011.8 |
| 20260905183540 | 97 | 360 | 1.7 | 6.1 | 0.00 | 0.00 | 0.00 | 48 | 1011.9 |
| 20260905183055 | 97 | 1 | 1.7 | 5.2 | 0.00 | 0.00 | 0.00 | 51 | 1012.0 |
| 20260905182541 | 97 | 340 | 0.9 | 5.2 | 0.00 | 0.00 | 0.00 | 50 | 1012.1 |
| 20260905182038 | 97 | 350 | 0.9 | 5.2 | 0.00 | 0.00 | 0.00 | 53 | 1012.1 |
| 20260905181550 | 97 | 152 | 2.6 | 5.2 | 0.00 | 0.00 | 0.00 | 51 | 1012.1 |
| 20260905181041 | 96 | 0 | 0.9 | 6.1 | 0.00 | 0.00 | 0.00 | 52 | 1012.2 |
| 20260905180538 | 96 | 292 | 2.6 | 6.1 | 0.00 | 0.00 | 0.00 | 51 | 1012.3 |
| 20260905180052 | 96 | 108 | 0.9 | 3.5 | 0.00 | 0.00 | 0.00 | 54 | 1012.4 |
| 20260905175538 | 96 | 0 | 0.9 | 6.1 | 0.00 | 0.00 | 0.00 | 51 | 1012.6 |
| 20260905175038 | 97 | 125 | 1.7 | 6.1 | 0.00 | 0.00 | 0.00 | 50 | 1012.7 |
| 20260905174558 | 97 | 0 | 0.9 | 4.3 | 0.00 | 0.00 | 0.00 | 51 | 1012.7 |
| 20260905174037 | 97 | 139 | 0.9 | 3.5 | 0.00 | 0.00 | 0.00 | 50 | 1012.9 |
| 20260905173538 | 97 | 0 | 0.0 | 3.5 | 0.00 | 0.00 | 0.00 | 56 | 1013.1 |
| 20260905173055 | 96 | 338 | 0.9 | 4.3 | 0.00 | 0.00 | 0.00 | 53 | 1013.1 |
| 20260905172540 | 95 | 44 | 0.9 | 4.3 | 0.00 | 0.00 | 0.00 | 57 | 1013.3 |
| 20260905172037 | 95 | 317 | 0.9 | 7.0 | 0.00 | 0.00 | 0.00 | 53 | 1013.4 |
| 20260905171546 | 95 | 295 | 0.9 | 7.0 | 0.00 | 0.00 | 0.00 | 51 | 1013.5 |
| 20260905171040 | 95 | 336 | 0.9 | 7.0 | 0.00 | 0.00 | 0.00 | 56 | 1013.4 |
| 20260905170538 | 94 | 359 | 0.9 | 7.0 | 0.00 | 0.00 | 0.00 | 55 | 1013.5 |
| 20260905170056 | 95 | 335 | 0.9 | 6.1 | 0.00 | 0.00 | 0.00 | 55 | 1013.4 |
| 20260905165537 | 95 | 359 | 0.9 | 4.3 | 0.00 | 0.00 | 0.00 | 58 | 1013.5 |
| 20260905165038 | 94 | 0 | 0.9 | 6.1 | 0.00 | 0.00 | 0.00 | 56 | 1013.6 |
| 20260905164553 | 94 | 20 | 1.7 | 6.1 | 0.00 | 0.00 | 0.00 | 57 | 1013.6 |
| 20260905164039 | 95 | 347 | 1.7 | 4.3 | 0.00 | 0.00 | 0.00 | 56 | 1013.6 |
| 20260905163537 | 94 | 0 | 0.9 | 5.2 | 0.00 | 0.00 | 0.00 | 55 | 1013.7 |
| 20260905163105 | 94 | 351 | 1.7 | 5.2 | 0.00 | 0.00 | 0.00 | 57 | 1013.8 |
| 20260905162539 | 94 | 309 | 0.9 | 6.1 | 0.00 | 0.00 | 0.00 | 58 | 1013.8 |
| 20260905162038 | 94 | 53 | 1.7 | 6.1 | 0.00 | 0.00 | 0.00 | 57 | 1013.9 |
| 20260905161555 | 94 | 0 | 0.9 | 6.1 | 0.00 | 0.00 | 0.00 | 59 | 1013.9 |
| 20260905161038 | 93 | 0 | 0.9 | 7.0 | 0.00 | 0.00 | 0.00 | 62 | 1013.9 |
| 20260905160537 | 93 | 115 | 1.7 | 7.0 | 0.00 | 0.00 | 0.00 | 60 | 1014.0 |
| 20260905160059 | 92 | 92 | 1.7 | 7.0 | 0.00 | 0.00 | 0.00 | 60 | 1014.1 |
| 20260905155541 | 92 | 195 | 0.9 | 3.5 | 0.00 | 0.00 | 0.00 | 60 | 1014.0 |
| 20260905155037 | 92 | 155 | 0.9 | 7.8 | 0.00 | 0.00 | 0.00 | 61 | 1014.3 |
| 20260905154604 | 92 | 199 | 0.9 | 7.8 | 0.00 | 0.00 | 0.00 | 63 | 1014.4 |
| 20260905154038 | 92 | 356 | 1.7 | 8.7 | 0.00 | 0.00 | 0.00 | 62 | 1014.4 |
| 20260905153537 | 91 | 23 | 2.6 | 8.7 | 0.00 | 0.00 | 0.00 | 62 | 1014.3 |
| 20260905153115 | 91 | 299 | 1.7 | 6.1 | 0.00 | 0.00 | 0.00 | 64 | 1014.3 |
| 20260905152538 | 90 | 13 | 2.6 | 6.1 | 0.00 | 0.00 | 0.00 | 63 | 1014.3 |
| 20260905152037 | 90 | 72 | 1.7 | 6.1 | 0.00 | 0.00 | 0.00 | 65 | 1014.3 |
| 20260905151604 | 89 | 30 | 1.7 | 6.1 | 0.00 | 0.00 | 0.00 | 66 | 1014.3 |
| 20260905151043 | 89 | 360 | 2.6 | 6.1 | 0.00 | 0.00 | 0.00 | 66 | 1014.2 |
| 20260905150538 | 88 | 98 | 1.7 | 6.1 | 0.00 | 0.00 | 0.00 | 66 | 1014.3 |
| 20260905150104 | 88 | 143 | 1.7 | 6.1 | 0.00 | 0.00 | 0.00 | 67 | 1014.4 |
| 20260905145538 | 88 | 143 | 1.7 | 6.1 | 0.00 | 0.00 | 0.00 | 68 | 1014.4 |
| 20260905145038 | 88 | 5 | 1.7 | 5.2 | 0.00 | 0.00 | 0.00 | 69 | 1014.4 |
| 20260905144559 | 88 | 186 | 1.7 | 5.2 | 0.00 | 0.00 | 0.00 | 68 | 1014.3 |
| 20260905144037 | 87 | 131 | 0.9 | 4.3 | 0.00 | 0.00 | 0.00 | 70 | 1014.3 |
| 20260905143538 | 87 | 143 | 1.7 | 4.3 | 0.00 | 0.00 | 0.00 | 69 | 1014.2 |
| 20260905143053 | 87 | 42 | 0.9 | 4.3 | 0.00 | 0.00 | 0.00 | 71 | 1014.3 |
| 20260905142538 | 86 | 335 | 1.7 | 5.2 | 0.00 | 0.00 | 0.00 | 72 | 1014.2 |
| 20260905142042 | 86 | 149 | 0.9 | 5.2 | 0.00 | 0.00 | 0.00 | 73 | 1014.3 |
| 20260905141612 | 85 | 68 | 0.9 | 4.3 | 0.00 | 0.00 | 0.00 | 74 | 1014.5 |
| 20260905141042 | 84 | 105 | 0.9 | 6.1 | 0.00 | 0.00 | 0.00 | 76 | 1014.5 |
| 20260905140542 | 84 | 46 | 1.7 | 6.1 | 0.00 | 0.00 | 0.00 | 76 | 1014.4 |
| 20260905140103 | 84 | 131 | 0.9 | 5.2 | 0.00 | 0.00 | 0.00 | 77 | 1014.5 |
| 20260905135537 | 83 | 130 | 0.9 | 5.2 | 0.00 | 0.00 | 0.00 | 78 | 1014.6 |
| 20260905135038 | 83 | 127 | 0.9 | 4.3 | 0.00 | 0.00 | 0.00 | 79 | 1014.6 |
| 20260905134605 | 83 | 0 | 0.9 | 3.5 | 0.00 | 0.00 | 0.00 | 80 | 1014.6 |
| 20260905134037 | 83 | 0 | 0.9 | 3.5 | 0.00 | 0.00 | 0.00 | 80 | 1014.6 |
| 20260905133538 | 82 | 0 | 0.0 | 3.5 | 0.00 | 0.00 | 0.00 | 83 | 1014.5 |
| 20260905133102 | 81 | 71 | 0.9 | 4.3 | 0.00 | 0.00 | 0.00 | 84 | 1014.6 |
| 20260905132538 | 80 | 0 | 0.9 | 7.0 | 0.00 | 0.00 | 0.00 | 84 | 1014.9 |
| 20260905132056 | 80 | 359 | 1.7 | 7.0 | 0.00 | 0.00 | 0.00 | 85 | 1014.6 |
| 20260905131600 | 80 | 57 | 1.7 | 5.2 | 0.00 | 0.00 | 0.00 | 86 | 1014.9 |
| 20260905131038 | 79 | 27 | 0.9 | 5.2 | 0.00 | 0.00 | 0.00 | 88 | 1014.9 |
| 20260905130538 | 79 | 72 | 0.0 | 2.6 | 0.00 | 0.00 | 0.00 | 89 | 1015.0 |
| 20260905130056 | 78 | 0 | 0.9 | 3.5 | 0.00 | 0.00 | 0.00 | 89 | 1014.8 |
| 20260905125537 | 78 | 101 | 0.9 | 3.5 | 0.00 | 0.00 | 0.00 | 90 | 1015.1 |
| 20260905125040 | 78 | 115 | 0.9 | 3.5 | 0.00 | 0.00 | 0.00 | 90 | 1014.9 |
| 20260905124551 | 78 | 184 | 0.9 | 2.6 | 0.00 | 0.00 | 0.00 | 91 | 1015.0 |
| 20260905124038 | 77 | 129 | 0.0 | 4.3 | 0.00 | 0.00 | 0.00 | 92 | 1014.9 |
| 20260905123540 | 77 | 0 | 0.0 | 4.3 | 0.00 | 0.00 | 0.00 | 92 | 1015.0 |
| 20260905123102 | 77 | 56 | 0.0 | 3.5 | 0.00 | 0.00 | 0.00 | 92 | 1015.1 |
| 20260905122538 | 77 | 106 | 0.0 | 3.5 | 0.00 | 0.00 | 0.00 | 93 | 1015.0 |
| 20260905122038 | 76 | 0 | 0.9 | 3.5 | 0.00 | 0.00 | 0.00 | 93 | 1014.9 |
| 20260905121556 | 76 | 0 | 0.9 | 2.6 | 0.00 | 0.00 | 0.00 | 93 | 1014.8 |
| 20260905121038 | 76 | 77 | 0.0 | 3.5 | 0.00 | 0.00 | 0.00 | 93 | 1015.0 |
| 20260905120544 | 76 | 326 | 0.9 | 3.5 | 0.00 | 0.00 | 0.00 | 93 | 1015.0 |
| 20260905120058 | 76 | 0 | 0.0 | 3.5 | 0.00 | 0.00 | 0.00 | 94 | 1015.0 |
| 20260905115543 | 76 | 137 | 0.0 | 2.6 | 0.00 | 0.00 | 0.00 | 94 | 1014.8 |
| 20260905115039 | 75 | 18 | 0.0 | 1.7 | 0.00 | 0.00 | 0.00 | 94 | 1014.9 |
| 20260905114623 | 75 | 0 | 0.0 | 1.7 | 0.00 | 0.00 | 0.00 | 94 | 1014.6 |
| 20260905114038 | 75 | 0 | 0.0 | 0.9 | 0.00 | 0.00 | 0.00 | 94 | 1014.7 |
| 20260905113538 | 75 | 0 | 0.0 | 1.7 | 0.00 | 0.00 | 0.00 | 93 | 1014.6 |
| 20260905113057 | 75 | 0 | 0.0 | 1.7 | 0.00 | 0.00 | 0.00 | 93 | 1014.5 |
| 20260905112538 | 75 | 0 | 0.0 | 1.7 | 0.00 | 0.00 | 0.00 | 93 | 1014.3 |
| 20260905112037 | 75 | 0 | 0.0 | 1.7 | 0.00 | 0.00 | 0.00 | 93 | 1014.1 |
| 20260905111554 | 75 | 0 | 0.0 | 1.7 | 0.00 | 0.00 | 0.00 | 93 | 1014.0 |
| 20260905111038 | 75 | 0 | 0.0 | 1.7 | 0.00 | 0.00 | 0.00 | 93 | 1014.2 |
| 20260905110539 | 75 | 0 | 0.0 | 1.7 | 0.00 | 0.00 | 0.00 | 93 | 1014.0 |
| 20260905110052 | 75 | 0 | 0.0 | 0.9 | 0.00 | 0.00 | 0.00 | 93 | 1014.0 |
| 20260905105538 | 75 | 0 | 0.0 | 0.9 | 0.00 | 0.00 | 0.00 | 92 | 1014.1 |
| 20260905105038 | 75 | 0 | 0.0 | 0.9 | 0.00 | 0.00 | 0.00 | 92 | 1013.9 |
| 20260905104548 | 75 | 0 | 0.0 | 1.7 | 0.00 | 0.00 | 0.00 | 92 | 1013.7 |
| 20260905104037 | 75 | 139 | 0.0 | 1.7 | 0.00 | 0.00 | 0.00 | 91 | 1013.6 |
| 20260905103537 | 75 | 0 | 0.0 | 1.7 | 0.00 | 0.00 | 0.00 | 91 | 1013.8 |
| 20260905103056 | 75 | 0 | 0.0 | 0.0 | 0.00 | 0.00 | 0.00 | 90 | 1013.7 |
| 20260905102537 | 76 | 0 | 0.0 | 0.0 | 0.00 | 0.00 | 0.00 | 90 | 1013.8 |
| 20260905102038 | 76 | 0 | 0.0 | 0.0 | 0.00 | 0.00 | 0.00 | 90 | 1013.8 |
| 20260905101622 | 76 | 0 | 0.0 | 0.0 | 0.00 | 0.00 | 0.00 | 90 | 1013.8 |
| 20260905101037 | 76 | 0 | 0.0 | 0.0 | 0.00 | 0.00 | 0.00 | 90 | 1013.9 |
| 20260905100537 | 76 | 0 | 0.0 | 0.0 | 0.00 | 0.00 | 0.00 | 90 | 1013.7 |
| 20260905100111 | 76 | 0 | 0.0 | 0.0 | 0.00 | 0.00 | 0.00 | 90 | 1013.6 |
| 20260905095537 | 76 | 0 | 0.0 | 0.0 | 0.00 | 0.00 | 0.00 | 90 | 1013.5 |
| 20260905095041 | 76 | 0 | 0.0 | 0.0 | 0.00 | 0.00 | 0.00 | 90 | 1013.5 |
| 20260905094604 | 76 | 0 | 0.0 | 0.0 | 0.00 | 0.00 | 0.00 | 90 | 1013.5 |
| 20260905094037 | 76 | 0 | 0.0 | 0.0 | 0.00 | 0.00 | 0.00 | 90 | 1013.6 |
| 20260905093538 | 77 | 0 | 0.0 | 0.0 | 0.00 | 0.00 | 0.00 | 89 | 1013.7 |
| 20260905093057 | 77 | 0 | 0.0 | 0.9 | 0.00 | 0.00 | 0.00 | 89 | 1013.6 |
| 20260905092539 | 77 | 0 | 0.0 | 0.9 | 0.00 | 0.00 | 0.00 | 89 | 1013.6 |
| 20260905092037 | 77 | 0 | 0.0 | 0.9 | 0.00 | 0.00 | 0.00 | 89 | 1013.6 |
| 20260905091600 | 77 | 0 | 0.0 | 0.9 | 0.00 | 0.00 | 0.00 | 89 | 1013.7 |
| 20260905091038 | 77 | 0 | 0.0 | 0.9 | 0.00 | 0.00 | 0.00 | 89 | 1013.8 |
| 20260905090537 | 77 | 0 | 0.0 | 1.7 | 0.00 | 0.00 | 0.00 | 90 | 1013.8 |
| 20260905090047 | 77 | 0 | 0.0 | 1.7 | 0.00 | 0.00 | 0.00 | 89 | 1013.8 |
| 20260905085538 | 77 | 0 | 0.0 | 1.7 | 0.00 | 0.00 | 0.00 | 90 | 1013.9 |
| 20260905085036 | 77 | 0 | 0.0 | 2.6 | 0.00 | 0.00 | 0.00 | 89 | 1013.8 |
| 20260905084554 | 77 | 124 | 0.0 | 2.6 | 0.00 | 0.00 | 0.00 | 89 | 1013.8 |
| 20260905084038 | 77 | 0 | 0.0 | 0.9 | 0.00 | 0.00 | 0.00 | 89 | 1013.8 |
| 20260905083540 | 77 | 0 | 0.0 | 1.7 | 0.00 | 0.00 | 0.00 | 89 | 1013.9 |